When you browse on this site, cookies collect data to enhance your experience and personalize the content and advertising you see.
Visit our Privacy Policy to learn more. By continuing to use the site, you agree to this use of cookies and data.
  • In Austria
  • List of Countries
  • For 7 days
  • Water Temperature
  • Weather Map
  • News
  • Weather Widgets
  • user-avatar
    Login

    Hourly Weather Los Reyes

    Today, 28 January, Tuesday

    Time Temperature Precipitation Wind Pressure Humidity
    00:00 +9°C° 0 mm 2 mps 582 mmHg 68%
    01:00 +9°C° 0 mm 2 mps 582 mmHg 66%
    02:00 +9°C° 0 mm 2 mps 582 mmHg 64%
    03:00 +9°C° 0 mm 2 mps 582 mmHg 63%
    04:00 +8°C° 0 mm 2 mps 582 mmHg 63%
    05:00 +8°C° 0 mm 2 mps 582 mmHg 62%
    06:00 +10°C° 0 mm 2 mps 583 mmHg 58%
    07:00 +12°C° 0 mm 2 mps 584 mmHg 55%
    08:00 +14°C° 0 mm 2 mps 585 mmHg 51%
    09:00 +16°C° 0 mm 2 mps 585 mmHg 44%
    10:00 +19°C° 0 mm 1 mps 586 mmHg 38%
    11:00 +21°C° 0 mm 1 mps 587 mmHg 31%
    12:00 +20°C° 0 mm 2 mps 586 mmHg 33%
    13:00 +20°C° 0 mm 2 mps 585 mmHg 36%
    14:00 +20°C° 0 mm 3 mps 584 mmHg 38%
    15:00 +18°C° 0 mm 2 mps 584 mmHg 51%
    16:00 +16°C° 0 mm 1 mps 583 mmHg 65%
    17:00 +14°C° 0 mm 1 mps 582 mmHg 79%
    18:00 +13°C° 0 mm 1 mps 582 mmHg 79%
    19:00 +12°C° 0 mm 1 mps 582 mmHg 79%
    20:00 +11°C° 0 mm 1 mps 583 mmHg 80%
    21:00 +10°C° 0 mm 1 mps 583 mmHg 78%
    22:00 +10°C° 0 mm 1 mps 583 mmHg 76%
    23:00 +9°C° 0 mm 1 mps 583 mmHg 74%

    Tomorrow, 29 January, Wednesday

    Time Temperature Precipitation Wind Pressure Humidity
    00:00 +9°C° 0.1 mm 1 mps 583 mmHg 77%
    01:00 +9°C° 0.1 mm 1 mps 582 mmHg 81%
    02:00 +7°C° 0.1 mm 0 mps 582 mmHg 85%
    03:00 +7°C° 0.1 mm 0 mps 582 mmHg 87%
    04:00 +7°C° 0.1 mm 0 mps 583 mmHg 90%
    05:00 +8°C° 0.1 mm 0 mps 583 mmHg 92%
    06:00 +9°C° 0.3 mm 1 mps 584 mmHg 92%
    07:00 +9°C° 0.3 mm 1 mps 584 mmHg 92%
    08:00 +9°C° 0.3 mm 2 mps 585 mmHg 91%
    09:00 +9°C° 0.1 mm 2 mps 585 mmHg 88%
    10:00 +9°C° 0.1 mm 2 mps 585 mmHg 85%
    11:00 +9°C° 0.1 mm 2 mps 585 mmHg 82%
    12:00 +10°C° 0 mm 2 mps 584 mmHg 80%
    13:00 +10°C° 0 mm 2 mps 583 mmHg 77%
    14:00 +10°C° 0 mm 3 mps 582 mmHg 75%
    15:00 +10°C° 0 mm 2 mps 582 mmHg 78%
    16:00 +9°C° 0 mm 2 mps 582 mmHg 81%
    17:00 +9°C° 0 mm 1 mps 581 mmHg 84%
    18:00 +9°C° 0 mm 1 mps 582 mmHg 83%
    19:00 +8°C° 0 mm 1 mps 582 mmHg 83%
    20:00 +8°C° 0 mm 1 mps 582 mmHg 83%
    21:00 +8°C° 0 mm 1 mps 582 mmHg 81%
    22:00 +8°C° 0 mm 1 mps 582 mmHg 78%
    23:00 +8°C° 0 mm 1 mps 582 mmHg 76%

    Day after tomorrow, 30 January, Thursday

    Time Temperature Precipitation Wind Pressure Humidity
    00:00 +8°C° 0 mm 1 mps 582 mmHg 75%
    01:00 +7°C° 0 mm 1 mps 581 mmHg 75%
    02:00 +6°C° 0 mm 2 mps 581 mmHg 74%
    03:00 +6°C° 0 mm 2 mps 581 mmHg 73%
    04:00 +6°C° 0 mm 2 mps 581 mmHg 71%
    05:00 +6°C° 0 mm 2 mps 581 mmHg 70%
    06:00 +8°C° 0 mm 2 mps 582 mmHg 66%
    07:00 +9°C° 0 mm 2 mps 583 mmHg 62%
    08:00 +12°C° 0 mm 2 mps 584 mmHg 58%
    09:00 +13°C° 0 mm 3 mps 585 mmHg 51%
    10:00 +16°C° 0 mm 3 mps 585 mmHg 43%
    11:00 +19°C° 0 mm 4 mps 586 mmHg 36%
    12:00 +19°C° 0 mm 4 mps 585 mmHg 37%
    13:00 +19°C° 0 mm 3 mps 585 mmHg 38%
    14:00 +19°C° 0 mm 3 mps 584 mmHg 39%
    15:00 +17°C° 0 mm 3 mps 583 mmHg 46%
    16:00 +16°C° 0 mm 2 mps 583 mmHg 52%
    17:00 +14°C° 0 mm 2 mps 582 mmHg 59%
    18:00 +14°C° 0 mm 2 mps 583 mmHg 54%
    19:00 +13°C° 0 mm 2 mps 583 mmHg 49%
    20:00 +12°C° 0 mm 3 mps 584 mmHg 44%
    21:00 +12°C° 0 mm 3 mps 584 mmHg 45%
    22:00 +12°C° 0 mm 4 mps 583 mmHg 46%
    23:00 +12°C° 0 mm 4 mps 583 mmHg 47%

    31 January, Friday

    Time Temperature Precipitation Wind Pressure Humidity
    00:00 +12°C° 0 mm 4 mps 583 mmHg 46%
    01:00 +11°C° 0 mm 3 mps 583 mmHg 46%
    02:00 +11°C° 0 mm 3 mps 582 mmHg 45%
    03:00 +11°C° 0 mm 3 mps 582 mmHg 47%
    04:00 +10°C° 0 mm 2 mps 582 mmHg 50%
    05:00 +10°C° 0 mm 2 mps 582 mmHg 53%
    06:00 +10°C° 0 mm 2 mps 584 mmHg 53%
    07:00 +12°C° 0 mm 1 mps 585 mmHg 54%
    08:00 +13°C° 0 mm 1 mps 586 mmHg 55%
    09:00 +14°C° 0 mm 2 mps 586 mmHg 55%
    10:00 +15°C° 0 mm 2 mps 587 mmHg 56%
    11:00 +16°C° 0 mm 3 mps 587 mmHg 56%
    12:00 +13°C° 0.1 mm 3 mps 586 mmHg 64%
    13:00 +12°C° 0.1 mm 3 mps 585 mmHg 72%
    14:00 +11°C° 0.1 mm 3 mps 584 mmHg 80%
    15:00 +10°C° 0.6 mm 3 mps 584 mmHg 85%
    16:00 +8°C° 0.6 mm 2 mps 584 mmHg 90%
    17:00 +7°C° 0.6 mm 2 mps 583 mmHg 96%
    18:00 +7°C° 0.2 mm 2 mps 584 mmHg 96%
    19:00 +6°C° 0.2 mm 2 mps 584 mmHg 96%
    20:00 +6°C° 0.2 mm 2 mps 585 mmHg 96%
    21:00 +5°C° 0.2 mm 2 mps 585 mmHg 96%
    22:00 +6°C° 0.2 mm 1 mps 585 mmHg 96%
    23:00 +6°C° 0.2 mm 1 mps 585 mmHg 96%

    1 February, Saturday

    Time Temperature Precipitation Wind Pressure Humidity
    00:00 +6°C° 0 mm 1 mps 585 mmHg 97%
    01:00 +6°C° 0 mm 1 mps 584 mmHg 97%
    02:00 +6°C° 0 mm 1 mps 584 mmHg 97%
    03:00 +6°C° 0 mm 1 mps 584 mmHg 97%
    04:00 +5°C° 0 mm 1 mps 585 mmHg 97%
    05:00 +5°C° 0 mm 1 mps 585 mmHg 97%
    06:00 +5°C° 0.1 mm 1 mps 585 mmHg 97%
    07:00 +4°C° 0.1 mm 2 mps 586 mmHg 97%
    08:00 +4°C° 0.1 mm 2 mps 587 mmHg 97%
    09:00 +4°C° 0.1 mm 2 mps 587 mmHg 96%
    10:00 +5°C° 0.1 mm 2 mps 587 mmHg 95%
    11:00 +5°C° 0.1 mm 2 mps 587 mmHg 95%
    12:00 +5°C° 0 mm 2 mps 586 mmHg 95%
    13:00 +5°C° 0 mm 2 mps 585 mmHg 95%
    14:00 +5°C° 0 mm 2 mps 585 mmHg 94%
    15:00 +5°C° 0 mm 2 mps 585 mmHg 95%
    16:00 +6°C° 0 mm 1 mps 585 mmHg 95%
    17:00 +6°C° 0 mm 1 mps 585 mmHg 96%
    18:00 +6°C° 0 mm 1 mps 586 mmHg 96%
    19:00 +6°C° 0 mm 1 mps 586 mmHg 96%
    20:00 +6°C° 0 mm 1 mps 587 mmHg 96%
    21:00 +6°C° 0 mm 1 mps 587 mmHg 96%
    22:00 +6°C° 0 mm 1 mps 587 mmHg 96%
    23:00 +5°C° 0 mm 0 mps 587 mmHg 95%

    2 February, Sunday

    Time Temperature Precipitation Wind Pressure Humidity
    00:00 +5°C° 0 mm 0 mps 586 mmHg 95%
    01:00 +5°C° 0 mm 0 mps 586 mmHg 94%
    02:00 +5°C° 0 mm 0 mps 585 mmHg 94%
    03:00 +5°C° 0 mm 0 mps 585 mmHg 93%
    04:00 +5°C° 0 mm 0 mps 585 mmHg 92%
    05:00 +5°C° 0 mm 0 mps 585 mmHg 91%
    06:00 +6°C° 0 mm 0 mps 586 mmHg 87%
    07:00 +7°C° 0 mm 0 mps 586 mmHg 84%
    08:00 +8°C° 0 mm 0 mps 587 mmHg 80%
    09:00 +11°C° 0 mm 1 mps 588 mmHg 75%
    10:00 +13°C° 0 mm 1 mps 588 mmHg 70%
    11:00 +14°C° 0 mm 1 mps 588 mmHg 65%
    12:00 +14°C° 0 mm 2 mps 588 mmHg 66%
    13:00 +14°C° 0 mm 2 mps 587 mmHg 66%
    14:00 +14°C° 0 mm 2 mps 586 mmHg 66%
    15:00 +13°C° 0 mm 2 mps 585 mmHg 71%
    16:00 +12°C° 0 mm 2 mps 585 mmHg 75%
    17:00 +11°C° 0 mm 1 mps 585 mmHg 80%
    18:00 +11°C° 0 mm 1 mps 585 mmHg 82%
    19:00 +9°C° 0 mm 0 mps 585 mmHg 85%
    20:00 +8°C° 0 mm 0 mps 585 mmHg 88%
    21:00 +8°C° 0 mm 0 mps 585 mmHg 88%
    22:00 +8°C° 0 mm 0 mps 585 mmHg 88%
    23:00 +9°C° 0 mm 1 mps 585 mmHg 88%
    Show more